Dewpoint
22 17 16 14 13 19 29 28 28 23 18 17 14 14 11 7 2 -2 16 16 16 14 11 11 13 10 9 13 16 17 22 23 22 25 31 32 32 32 32 38 46 49 50 48 52 52 52 55 58 61 62 64 64 64 65 64 63 64 61 62 61 63 62 61 59 56 54 52 53 53 53 51 50 53 56 56 56 56 56 56 54 55 55 56 57 57
25 17 19 20 28 29 30 30 28 25 25 17 13 10 5 6 8 3 10 19 17 22 10 12 10 16 17 19 18 20 22 21 23 24 28 30 28 31 33 36 41 50 48 48 52 53 52 53 58 60 61 62 62 63 65 64 64 63 62 62 62 62 61 60 58 56 55 54 51 50 50 49 48 48 50 52 55 56 54 55 54 54 54 56 55 56
18 14 19 25 28 27 28 29 25 25 25 21 13 9 8 6 3 16 20 22 16 22 14 10 12 16 18 17 19 22 23 22 23 24 26 28 26 28 29 36 42 44 45 46 50 52 50 54 57 58 61 62 61 62 63 64 64 63 61 62 62 61 59 58 59 56 55 54 54 52 49 48 50 53 55 53 54 55 52 56 55 55 56 56 54 56
18 11 23 23 26 25 25 24 26 27 27 20 15 10 9 8 7 11 25 22 22 21 16 14 10 19 21 20 22 25 23 23 25 25 28 29 28 29 31 35 41 45 47 51 54 54 49 53 56 57 59 61 61 61 61 62 63 62 60 61 62 60 58 58 58 56 57 56 55 55 53 54 53 54 56 56 55 54 54 55 56 56 57 56 55 53
9 22 23 26 23 24 27 27 27 21 16 21 21 14 8 10 13 11 17 25 30 28 27 17 21 18 18 15 17 23 23 23 23 23 28 34 31 32 34 35 39 42 48 50 53 55 52 52 55 56 57 60 60 60 58 60 61 60 60 60 61 58 57 58 58 58 58 57 57 56 58 57 56 53 52 52 50 53 53 53 54 55 56 55 55 55
6 26 25 19 17 19 24 25 25 25 15 17 24 23 20 19 22 22 23 25 24 21 26 16 10 12 15 13 12 19 22 23 24 27 28 31 35 33 36 38 39 44 44 46 47 50 53 53 55 56 57 58 58 59 59 60 60 60 59 60 60 58 57 57 58 59 57 54 55 54 51 50 50 50 51 50 50 50 51 49 53 54 55 55 55 54
18 25 21 20 22 22 20 20 24 25 16 15 18 23 22 17 22 22 22 22 16 11 20 28 19 13 11 12 16 20 23 23 22 21 19 19 21 21 25 29 34 40 42 46 45 48 52 54 55 56 56 57 57 58 59 60 60 60 59 61 60 58 57 58 58 60 55 53 53 53 50 48 49 49 51 52 52 52 51 52 55 54 56 54 56 55
14 22 18 22 25 24 21 18 23 24 19 11 27 20 19 18 18 21 22 18 16 20 26 23 16 16 11 11 19 22 23 21 22 21 22 16 21 20 21 21 29 32 38 38 41 48 51 54 55 56 56 57 56 58 58 60 60 59 58 61 59 57 57 59 59 58 55 54 54 53 52 49 48 49 52 53 54 54 52 53 54 55 55 55 54 54
24 24 22 22 22 19 15 17 21 24 19 15 26 22 19 17 25 22 19 21 19 19 15 18 20 17 13 13 14 20 21 20 19 25 23 21 20 21 24 23 23 32 38 42 43 45 47 52 55 56 56 57 57 57 58 60 60 59 58 61 59 57 57 59 59 57 55 55 54 53 52 49 49 51 52 50 52 51 53 53 53 53 52 53 54 53
20 19 17 19 17 15 15 14 18 25 21 24 23 21 20 22 23 24 20 18 22 21 18 19 18 15 15 18 12 19 18 19 20 23 25 24 23 22 24 29 34 32 34 35 36 40 47 50 51 56 57 57 57 58 58 60 59 58 57 60 58 56 56 59 58 56 55 55 54 53 53 50 49 51 48 49 50 51 52 52 53 52 51 51 52 52
20 23 22 13 13 11 12 18 19 16 19 23 24 18 16 18 23 23 22 20 21 16 16 20 21 15 13 16 16 20 26 24 19 23 26 25 25 24 33 31 27 24 28 28 31 37 42 44 50 53 56 57 58 59 58 60 59 58 58 60 57 56 55 58 58 56 55 55 54 52 52 51 52 52 49 49 51 51 52 52 52 50 51 50 50 50
10 12 11 10 11 8 10 14 17 15 15 19 20 17 18 20 22 23 22 23 16 12 16 12 15 23 15 13 11 20 25 23 25 27 26 26 25 27 32 26 26 28 30 29 30 36 44 45 45 49 55 57 57 58 58 60 59 57 58 59 57 56 56 59 58 56 56 54 55 54 53 51 52 52 50 52 50 52 52 52 50 50 50 51 50 50
17 11 9 11 16 9 9 5 8 12 16 16 18 18 20 16 18 17 18 16 13 16 19 14 17 19 15 17 13 18 19 20 22 17 24 27 26 32 27 29 28 28 30 30 33 41 47 47 48 47 52 57 58 57 58 59 59 58 58 59 56 55 55 58 58 55 56 55 54 54 54 52 53 52 50 52 52 53 50 51 50 50 49 50 49 49
15 12 11 10 10 12 8 7 5 14 14 14 16 22 17 12 13 14 12 14 15 18 18 19 21 16 12 11 18 22 24 22 22 25 26 28 33 33 27 28 27 33 34 32 37 42 46 48 49 50 53 55 56 56 56 58 59 58 59 58 56 55 55 57 58 55 55 55 55 55 54 52 51 52 52 50 51 52 50 50 50 50 49 49 51 51
9 5 7 9 14 12 9 7 9 15 12 11 13 12 19 17 17 13 9 8 8 7 19 18 18 16 14 14 18 26 25 23 23 21 30 31 31 33 28 28 30 35 40 39 42 46 49 51 52 54 55 55 54 55 55 57 58 58 58 57 55 55 55 56 57 55 55 54 55 54 54 53 52 52 50 49 50 52 50 50 51 51 49 49 50 50
5 7 13 10 12 12 7 8 10 9 9 12 14 13 15 15 18 11 14 13 16 14 14 18 19 15 17 27 25 22 20 20 21 24 28 28 28 31 32 34 34 38 41 44 44 46 51 53 53 53 53 54 53 54 55 55 57 58 57 57 55 54 55 56 57 56 54 54 55 55 55 55 53 52 51 49 48 51 51 52 51 51 50 49 49 52
6 6 12 11 9 8 5 9 10 8 13 17 7 16 16 15 12 14 18 22 24 15 11 13 19 17 17 18 22 20 18 20 19 21 23 27 29 34 33 34 36 39 41 45 46 47 50 52 52 53 53 54 54 55 55 55 56 57 57 56 55 54 55 55 57 57 55 54 55 55 55 55 55 54 52 50 50 52 54 53 52 52 50 51 51 51
16 10 6 9 9 9 9 9 8 10 9 7 12 11 10 10 18 20 14 14 13 11 13 14 17 10 9 13 17 19 18 18 18 18 21 31 30 30 33 37 38 40 42 45 46 49 50 52 52 52 52 53 53 54 55 55 56 57 57 56 56 54 55 55 56 56 56 55 55 55 56 56 56 55 54 52 51 51 53 52 52 52 51 50 51 51
19 14 6 6 8 10 14 12 8 6 8 7 6 9 12 13 13 16 14 12 13 12 9 11 11 11 10 16 18 20 20 21 19 19 24 25 27 30 32 36 39 41 43 43 45 47 48 50 50 51 52 51 53 54 55 54 56 56 56 55 55 54 55 56 56 55 54 55 55 55 56 57 56 55 54 53 53 54 54 53 52 51 51 53 51 50
23 17 12 6 6 9 13 11 8 6 5 8 8 6 9 14 16 11 15 14 17 14 15 16 10 12 15 16 22 21 24 24 20 21 23 24 28 32 33 34 37 41 42 40 43 46 48 49 49 51 53 51 53 53 55 55 55 56 56 55 55 55 54 55 54 55 55 55 55 55 55 56 55 54 54 54 54 53 54 53 53 52 52 53 51 51
20 26 15 15 10 13 12 13 14 7 12 10 12 12 10 19 18 13 21 12 13 13 11 12 12 15 25 22 21 24 31 25 23 23 25 28 30 32 34 37 38 39 41 41 42 43 46 49 50 50 50 49 51 52 54 54 54 55 54 54 54 54 54 54 54 54 54 55 54 55 55 56 56 56 54 54 54 54 53 54 54 53 53 51 53 51
17 16 15 16 11 11 13 10 13 15 15 18 19 19 19 16 14 15 16 16 13 11 12 10 12 17 30 27 24 20 25 26 24 22 27 26 29 35 37 38 38 38 40 40 40 41 42 46 47 47 46 48 49 50 51 51 52 53 54 53 54 52 53 53 55 54 56 56 55 55 55 55 56 52 54 54 54 55 53 54 54 56 53 53 53 52
27 24 19 14 13 9 4 12 17 15 15 14 14 13 13 21 18 17 15 17 19 14 10 13 14 14 31 27 22 25 27 23 24 23 26 28 33 34 36 37 39 39 39 40 40 39 39 41 42 42 45 47 48 48 49 49 50 53 52 52 52 52 54 53 53 54 55 56 56 55 56 55 56 57 56 54 53 53 53 51 54 54 55 54 54 54
24 23 13 6 1 -2 -1 -1 11 12 11 13 15 17 15 15 16 16 17 19 17 21 17 15 14 20 28 27 26 28 27 24 25 24 26 30 32 33 34 36 36 37 38 39 38 39 38 37 38 37 39 40 43 45 46 47 47 48 48 49 50 52 51 52 52 52 53 54 55 56 56 57 57 57 56 55 55 55 53 51 52 50 54 55 56 54
21 21 13 4 2 1 6 5 -1 4 11 13 11 14 12 11 14 18 20 23 18 19 15 14 12 14 35 30 25 23 23 22 22 23 27 30 33 34 34 35 36 37 37 37 37 37 38 37 36 34 34 34 36 38 42 41 42 43 44 44 45 47 51 51 52 53 52 52 54 55 56 56 56 56 56 56 57 57 57 56 52 52 50 52 54 54
20 21 16 11 12 11 7 2 5 12 12 17 18 14 9 11 24 21 16 17 14 18 15 11 8 16 28 25 24 23 22 23 24 24 26 29 32 31 32 35 36 37 37 38 40 40 40 36 34 36 37 33 34 33 37 39 39 40 40 41 43 41 43 43 44 46 50 53 55 56 58 59 57 57 57 57 57 60 60 60 59 57 56 52 53 54
21 24 20 17 11 9 9 6 14 12 12 10 14 13 14 16 17 22 19 15 12 16 14 16 17 17 20 22 23 25 26 25 26 27 26 25 30 31 34 34 34 35 35 37 40 39 40 40 40 38 38 35 35 35 34 33 33 34 38 39 39 38 40 42 42 41 42 44 47 52 56 58 58 60 59 59 58 58 58 58 57 56 55 55 55 55
23 20 20 23 21 13 11 11 11 10 12 10 8 16 14 15 19 21 17 17 20 15 9 15 18 18 17 16 18 24 25 25 25 24 25 25 29 30 32 33 36 32 35 36 38 38 39 39 40 40 39 37 34 32 31 30 31 32 34 33 34 36 39 39 39 38 38 41 43 43 44 45 47 51 55 59 59 60 59 58 58 58 58 57 56 56
23 18 21 23 19 15 15 13 11 11 9 10 9 14 18 15 18 21 23 21 24 19 15 20 22 22 20 21 20 17 19 23 24 25 27 27 26 30 32 30 29 30 32 32 37 38 38 38 39 39 38 36 36 35 35 31 33 37 37 35 34 36 35 37 37 35 34 36 38 39 40 42 43 45 46 46 48 53 55 59 59 59 59 58 58 59
26 20 22 17 17 15 13 12 13 12 12 9 14 14 15 20 22 22 23 22 21 23 22 23 24 24 22 20 20 22 26 26 23 25 27 24 26 29 30 31 28 28 29 31 34 35 36 37 38 39 37 35 33 34 32 33 33 33 36 35 34 36 34 36 38 36 35 33 35 37 35 34 37 37 40 42 44 45 48 50 52 56 57 57 57 57
26 19 27 24 19 18 16 13 12 11 15 16 14 12 15 17 17 19 21 22 23 23 23 24 25 26 25 28 25 24 24 20 23 22 24 24 26 29 29 29 29 29 29 31 33 33 34 35 35 36 36 37 36 36 36 35 33 33 35 35 34 34 33 32 36 37 37 36 36 36 35 35 36 38 37 37 38 41 43 44 48 51 51 52 52 54
28 23 24 20 16 18 16 14 12 13 16 15 17 19 19 19 22 22 20 22 23 22 24 24 23 23 24 23 21 21 21 19 21 25 24 25 24 26 27 28 28 29 30 31 31 32 32 33 34 35 35 36 33 34 33 34 32 35 35 36 34 34 34 37 38 37 37 36 36 36 34 35 34 34 35 37 37 38 37 40 42 45 50 51 51 52
26 23 20 17 16 18 15 14 14 19 19 16 19 21 19 21 19 18 19 22 24 24 21 21 21 22 23 22 20 22 24 20 20 19 22 22 24 23 27 28 28 30 30 29 30 30 31 30 34 37 36 33 33 28 30 30 32 36 36 36 37 34 35 34 35 33 35 35 35 33 35 34 36 36 37 36 37 39 42 41 41 42 45 48 51 52
23 24 20 21 17 17 16 18 20 17 13 12 22 26 25 22 21 21 21 22 23 23 18 20 19 22 25 26 24 26 23 23 25 25 23 27 30 32 29 27 29 30 30 30 30 30 32 33 35 37 38 37 36 34 35 36 35 37 39 36 33 34 34 32 32 33 33 34 34 34 34 34 33 35 37 39 40 40 40 41 41 43 44 45 47 48
24 22 20 22 17 16 18 19 14 13 13 21 24 22 24 24 21 21 22 22 22 22 25 27 26 26 27 24 23 23 23 21 24 26 27 26 28 29 31 29 30 31 32 32 33 33 36 37 37 38 38 36 35 36 37 34 34 37 34 35 34 34 34 33 32 34 35 35 34 34 35 36 37 37 37 37 38 40 40 41 43 44 44 45 46 46
21 20 19 19 16 15 14 13 12 12 19 25 25 24 26 20 18 21 21 21 22 24 26 25 22 23 26 27 28 29 27 26 25 24 24 23 24 28 29 29 29 30 30 31 33 36 37 35 36 37 38 37 33 30 29 31 33 34 34 35 35 35 34 33 33 33 35 35 35 36 36 38 38 39 39 39 39 40 41 42 44 45 45 44 44 46
21 20 18 16 19 13 13 12 13 18 18 19 21 22 19 19 23 24 20 22 26 28 27 25 23 24 23 23 26 26 27 26 25 24 27 28 31 32 32 28 29 29 31 32 32 34 36 36 35 36 36 37 35 32 33 33 33 36 35 34 34 33 33 33 33 31 33 33 32 33 35 37 38 40 40 40 40 39 41 42 43 45 45 45 45 44
17 20 19 16 17 15 12 11 12 12 12 15 23 30 30 32 31 29 26 25 26 26 25 25 24 24 23 24 24 25 28 27 24 23 26 25 26 30 28 30 28 30 29 28 29 30 32 33 33 32 32 32 33 33 33 35 35 34 34 34 33 31 31 30 31 31 31 32 31 34 35 36 35 37 38 40 41 41 43 43 44 44 46 45 45 44
16 19 19 16 15 15 14 12 11 11 14 25 27 28 29 26 35 29 23 12 22 25 25 25 23 25 25 26 26 28 27 22 27 34 26 24 24 25 26 25 22 24 25 26 28 29 30 33 33 30 29 33 34 34 36 35 34 33 33 34 34 34 32 33 33 33 32 33 33 33 34 36 37 38 39 40 40 42 43 43 44 44 46 46 46 46
19 16 15 15 17 15 15 13 12 15 14 27 28 26 26 27 29 26 14 11 28 24 24 24 24 26 26 26 26 25 25 24 25 29 30 29 26 26 27 26 26 26 25 24 27 29 30 30 27 30 32 33 34 35 34 35 33 35 35 34 35 35 35 34 35 34 34 34 35 36 35 37 38 40 41 41 43 43 44 44 44 46 46 46 44 43
16 17 16 15 14 15 17 12 13 15 23 27 26 26 26 30 26 17 12 18 25 26 24 25 24 25 26 27 26 23 27 26 25 27 29 28 25 25 25 26 25 22 21 21 22 29 24 22 24 23 28 30 31 33 34 34 34 34 34 36 36 37 37 37 36 36 35 35 35 36 36 35 37 40 41 41 42 43 43 44 44 45 44 44 44 45
18 20 20 20 15 14 15 13 13 15 29 27 24 26 27 26 15 13 22 27 27 24 25 24 25 25 26 25 26 25 25 23 25 24 25 25 26 27 25 25 25 25 24 26 28 27 28 26 29 28 27 27 27 28 30 31 32 32 32 33 34 35 35 36 35 36 35 35 35 36 37 38 40 42 44 43 43 43 43 43 43 43 45 44 44 45
16 16 14 13 16 16 15 12 11 11 26 26 28 23 23 20 18 21 23 24 24 24 24 24 24 24 25 25 26 27 26 24 25 24 25 26 25 25 26 25 26 25 25 26 25 21 21 21 23 25 28 28 29 29 30 32 32 32 32 32 34 34 34 35 37 36 36 36 36 37 38 40 41 42 43 44 44 42 42 42 43 44 45 46 47 47
21 17 15 13 16 12 12 12 13 22 26 26 24 19 25 24 23 23 24 21 22 22 22 22 22 23 25 24 25 25 26 25 25 26 26 24 25 25 25 25 25 23 23 22 20 20 21 22 25 26 27 27 28 28 29 31 30 30 30 32 32 33 35 36 36 36 37 39 39 40 40 40 40 41 42 41 41 41 42 42 43 43 45 48 47 46
15 16 21 16 20 17 15 15 21 20 20 19 23 22 23 24 24 23 24 23 23 22 23 21 22 24 25 24 24 24 23 24 25 24 24 26 25 24 23 20 22 22 22 23 21 22 22 19 23 24 25 26 28 29 29 31 32 32 33 34 34 33 34 35 35 36 36 37 37 38 38 40 40 39 39 39 39 41 41 42 43 43 46 46 45 44
17 17 20 17 17 18 16 17 19 14 16 18 19 20 20 21 20 20 20 19 19 21 21 21 21 22 22 23 21 22 22 22 22 22 22 22 22 21 23 21 21 23 22 23 23 23 21 21 23 25 27 25 27 29 32 33 32 33 35 35 34 34 35 35 35 36 36 36 37 36 35 37 38 39 39 40 40 41 43 44 44 44 47 45 44 42
19 18 17 16 18 14 13 15 16 17 19 19 17 17 19 19 18 19 19 19 21 21 21 21 21 23 23 21 20 20 20 21 20 20 20 20 20 21 21 21 22 22 23 23 24 26 26 26 26 27 28 29 29 29 31 33 33 33 33 34 35 35 36 35 35 35 36 36 36 37 37 37 38 38 39 41 41 43 45 45 45 45 43 43 42 40
16 21 16 16 16 14 16 16 17 17 17 17 15 16 17 18 18 19 20 21 21 22 22 22 23 22 22 21 21 20 19 20 20 20 19 19 20 20 19 19 20 21 23 23 24 25 26 27 28 28 29 29 31 32 32 32 32 32 34 36 36 36 35 35 36 36 35 36 37 37 37 38 36 38 41 42 43 44 45 44 45 43 42 42 42 40
16 17 12 13 12 13 15 14 12 17 18 17 17 18 17 17 17 20 21 21 22 20 21 21 20 20 20 20 20 20 20 20 20 19 17 17 18 19 19 19 20 21 23 23 25 27 28 29 29 33 34 31 32 32 33 33 35 36 39 40 38 38 37 37 37 37 38 38 38 38 38 39 40 44 42 43 43 43 43 43 42 42 41 40 36 37
14 14 13 15 14 14 12 14 16 13 14 14 15 17 17 20 20 21 22 22 23 22 20 20 19 21 23 23 23 22 22 21 20 20 19 18 18 19 22 21 21 23 23 25 28 31 30 31 31 32 33 34 35 35 35 36 37 38 39 39 39 38 38 38 38 38 38 39 39 39 40 41 42 42 42 41 39 36 35 32 36 39 40 37 34 34
16 17 16 13 13 13 16 15 18 17 16 17 18 19 22 24 25 25 26 25 24 25 27 29 31 30 29 31 31 28 28 26 26 24 22 19 19 21 23 23 24 25 27 28 29 29 30 31 34 34 34 34 36 36 36 37 37 39 40 39 38 38 38 38 38 39 40 42 43 43 43 42 41 41 40 38 36 35 33 32 32 33 33 33 33 33